[[{"header":{"parameterUnit":"m.s-1","parameterCategory":1,"la1":30.2992,"la2":30.254,"lo1":-89.0895,"lo2":-89.0443,"dy":0.0025,"dx":0.0025,"nx":19,"ny":19,"refTime":"2026-03-23T21:00:00:Z","depth":0,"parameterNumber":2,"parameterNumberName":"U-component_of_WINDS"},"data":[0,0,0,-1.5899,-1.5895,-1.5727,-1.5726,-1.5504,-1.5502,0,0,0,0,0,0,0,0,0,0,0,-1.595,-1.5948,-1.5899,-1.5895,-1.5727,-1.5726,-1.5505,-1.5502,0,0,0,0,0,0,0,0,0,0,0,-1.595,-1.5949,-1.5947,-1.5894,-1.5727,-1.5726,-1.5505,-1.5633,0,0,0,0,0,0,0,0,0,0,-1.5797,-1.5847,-1.5949,-1.5947,-1.5893,-1.5727,-1.5726,-1.5639,-1.5625,-1.5579,0,-1.5544,0,-1.552,-1.5488,-1.5487,0,0,0,-1.5892,-1.5859,-1.5813,-1.5947,-1.5892,-1.5728,-1.5802,-1.5631,-1.5615,-1.556,-1.554,-1.5532,-1.5516,-1.5486,-1.5485,-1.5236,-1.5235,0,0,-1.5902,-1.5919,-1.5824,-1.5802,-1.5834,-1.5807,-1.5797,-1.5622,-1.5599,-1.554,-1.5527,-1.5512,-1.5485,-1.5483,-1.5237,-1.5236,0,0,0,-1.593,-1.5925,-1.5884,-1.5812,-1.5782,-1.5803,-1.579,-1.5607,-1.5592,-1.5525,-1.551,-1.5483,-1.5481,-1.5238,-1.5237,-1.5198,0,0,0,-1.5935,-1.5942,-1.5888,-1.5897,-1.5786,-1.5694,-1.578,-1.5604,-1.5584,-1.5511,-1.5483,-1.5479,-1.5239,-1.5237,-1.5201,-1.5174,0,0,0,-1.596,-1.5945,-1.5922,-1.5898,-1.5827,-1.5696,-1.5671,-1.56,-1.5575,-1.5487,-1.5478,-1.524,-1.5238,-1.5205,-1.518,-1.5108,0,0,0,-1.599,-1.5891,-1.5921,-1.5805,-1.5829,-1.5677,-1.5672,-1.5558,-1.5478,-1.5482,-1.5239,-1.5237,-1.5206,-1.5183,-1.5112,-1.5047,-1.5024,0,0,-1.5874,-1.5878,-1.5808,-1.583,-1.5677,-1.5701,-1.554,-1.545,-1.5425,-1.5299,-1.5293,-1.52,-1.518,-1.5109,-1.49,-1.4882,0,0,0,-1.5776,-1.5725,-1.5681,-1.5607,-1.5539,-1.5473,-1.5407,-1.5373,-1.5265,-1.5366,-1.5159,-1.5146,-1.5104,-1.5071,-1.5055,-1.5013,-1.5225,-1.5225,-1.5225,-1.5632,-1.5607,-1.5487,-1.5441,-1.5369,-1.5301,-1.5237,-1.5178,-1.5174,-1.5125,-1.5085,-1.4962,-1.4925,-1.4913,-1.487,-1.5055,-1.5055,-1.5055,-1.5055,-1.5453,-1.5373,-1.5371,-1.5253,-1.5225,-1.5123,-1.5052,-1.5052,-1.4948,-1.4991,-1.4952,-1.4994,-1.4894,-1.4854,-1.5052,-1.5052,-1.5053,-1.5053,-1.5053,-1.5349,-1.5306,-1.527,-1.5158,-1.5073,-1.503,-1.493,-1.491,-1.489,-1.4852,-1.4802,-1.4802,-1.4793,-1.4832,-1.4831,-1.4831,-1.483,-1.483,-1.483,-1.5253,-1.5213,-1.5134,-1.5051,-1.4999,-1.4927,-1.4857,-1.4802,-1.4736,-1.4727,-1.4727,-1.4721,-1.4893,-1.4932,-1.4823,-1.4824,-1.4825,-1.4826,-1.4826,-1.5067,-1.5106,-1.4983,-1.4931,-1.4829,-1.4743,-1.4721,-1.4611,-1.4564,-1.4513,-1.4518,-1.4651,-1.4651,-1.4663,-1.4694,-1.453,-1.453,-1.453,-1.453,-1.4972,-1.4974,-1.4841,-1.4757,-1.4674,-1.464,-1.4494,-1.4437,-1.4383,-1.435,-1.4372,-1.4415,-1.4429,-1.442,-1.4437,-1.4465,-1.4246,-1.4246,-1.4246,-1.4852,-1.4844,-1.4725,-1.4678,-1.4597,-1.4525,-1.4385,-1.4283,-1.423,-1.4234,-1.4321,-1.4333,-1.4401,-1.4427,-1.4425,-1.4452,-1.4504,0,0]},{"header":{"parameterUnit":"m.s-1","parameterCategory":1,"la1":30.2992,"la2":30.254,"lo1":-89.0895,"lo2":-89.0443,"dy":0.0025,"dx":0.0025,"nx":19,"ny":19,"refTime":"2026-03-23T21:00:00:Z","depth":0,"parameterNumber":3,"parameterNumberName":"V-component_of_WINDS"},"data":[0,0,0,-3.3545,-3.3543,-3.3485,-3.3485,-3.3408,-3.3407,0,0,0,0,0,0,0,0,0,0,0,-3.3564,-3.3564,-3.3545,-3.3543,-3.3485,-3.3485,-3.3408,-3.3407,0,0,0,0,0,0,0,0,0,0,0,-3.3565,-3.3564,-3.3564,-3.3543,-3.3485,-3.3485,-3.3408,-3.3452,0,0,0,0,0,0,0,0,0,0,-3.3509,-3.353,-3.3564,-3.3564,-3.3543,-3.3485,-3.3485,-3.3454,-3.3449,-3.3434,0,-3.3425,0,-3.3415,-3.3402,-3.3402,0,0,0,-3.354,-3.3534,-3.3517,-3.3564,-3.3542,-3.3485,-3.351,-3.3451,-3.3446,-3.3428,-3.3424,-3.3421,-3.3414,-3.3402,-3.3401,-3.3333,-3.3333,0,0,-3.3544,-3.3554,-3.3521,-3.3513,-3.3527,-3.3512,-3.3509,-3.3448,-3.3443,-3.3424,-3.3419,-3.3413,-3.3401,-3.34,-3.3333,-3.3333,0,0,0,-3.3555,-3.3557,-3.354,-3.3517,-3.3507,-3.3511,-3.3506,-3.3446,-3.344,-3.3419,-3.3412,-3.3401,-3.34,-3.3334,-3.3333,-3.3335,0,0,0,-3.3557,-3.3563,-3.3542,-3.3548,-3.3508,-3.3476,-3.3506,-3.3444,-3.3437,-3.3412,-3.3401,-3.3399,-3.3334,-3.3333,-3.3335,-3.3333,0,0,0,-3.3567,-3.3564,-3.3557,-3.3549,-3.3524,-3.3477,-3.3467,-3.3442,-3.3433,-3.3402,-3.3399,-3.3334,-3.3334,-3.3336,-3.3333,-3.3317,0,0,0,-3.358,-3.3558,-3.3557,-3.353,-3.3525,-3.348,-3.3468,-3.3433,-3.3407,-3.34,-3.3334,-3.3333,-3.3336,-3.3334,-3.3318,-3.3304,-3.3301,0,0,-3.3558,-3.3556,-3.3539,-3.3536,-3.3495,-3.3488,-3.3445,-3.3409,-3.3395,-3.3354,-3.3352,-3.3335,-3.3333,-3.3317,-3.3278,-3.3275,0,0,0,-3.3535,-3.3523,-3.351,-3.3487,-3.3461,-3.3437,-3.3408,-3.3394,-3.3359,-3.3377,-3.3325,-3.3324,-3.3314,-3.3307,-3.3304,-3.3294,-3.3331,-3.3331,-3.3331,-3.3517,-3.3503,-3.3473,-3.3451,-3.3428,-3.3398,-3.3377,-3.3353,-3.3343,-3.3331,-3.3318,-3.3297,-3.3289,-3.3287,-3.3277,-3.3312,-3.3312,-3.3312,-3.3312,-3.3482,-3.3461,-3.345,-3.3417,-3.34,-3.3371,-3.334,-3.3334,-3.3302,-3.3306,-3.3296,-3.33,-3.3285,-3.3274,-3.3312,-3.3312,-3.3312,-3.3312,-3.3312,-3.3467,-3.3455,-3.3441,-3.3406,-3.3379,-3.3356,-3.3327,-3.3312,-3.3297,-3.3288,-3.3271,-3.3271,-3.3267,-3.3282,-3.3282,-3.3282,-3.3282,-3.3281,-3.3281,-3.3457,-3.3441,-3.3419,-3.3391,-3.3373,-3.3348,-3.3318,-3.3299,-3.3274,-3.3265,-3.3264,-3.3254,-3.3288,-3.3295,-3.328,-3.328,-3.328,-3.3281,-3.3281,-3.3423,-3.3429,-3.3395,-3.3378,-3.3342,-3.3315,-3.3298,-3.3261,-3.3243,-3.3228,-3.322,-3.3248,-3.3243,-3.3245,-3.3251,-3.3225,-3.3225,-3.3225,-3.3225,-3.3409,-3.3407,-3.3369,-3.3342,-3.3314,-3.3295,-3.3253,-3.3228,-3.3202,-3.3189,-3.3191,-3.3198,-3.3201,-3.3194,-3.3197,-3.3203,-3.3165,-3.3165,-3.3165,-3.3387,-3.3381,-3.335,-3.3329,-3.3299,-3.3272,-3.3232,-3.3198,-3.3169,-3.3162,-3.3178,-3.3181,-3.3192,-3.3197,-3.3189,-3.3194,-3.3203,0,0]}]]